STARLINK-2692 (48434 NORAD) Tracking and Keplerian Element Data

This shows tracking and keplerian element data for the satellite.

Feedback or suggestion? Click here.




ElementValue
Catalog48434
NameSTARLINK-2692
Epoch Orbit369
Epoch Day214.91667824
Epoch Year2021
RAAN157.3389
Inclination53.0475
Eccentricity0.0001973
Argument of Perigee23.5667
Mean Anonmoly82.3993
Mean Motion15.73235041
Decay Rate-0.00013457
L11 48434U 21040G 21214.91667824 -.00013457 00000-0 -91444-4 0 9991
L22 48434 53.0475 157.3389 0001973 23.5667 82.3993 15.73235041 3697

Live tracking and technical data element details for STARLINK-2692 (NORAD 48434). STARLINK-2692 can be tracked NOW for your location showing map with azimuth and elevation plus other details from your city location.

Track the satellite on the map from your city or location and see movement details for azimuth, elevation, latitude, longitude, range, height, and movement on the map or in text.







IsCatalogInMostPopularTable: catalog: 48434, numindb: 28
Update: records affected: 1



GetName: 48434 STARLINK-2692

Hit Count: updated at: Tue, 03 Aug 2021 19:31:04 GMT